EB2EMZ-14 Weather Reports


Display with metric or nautical units.
time (UTC)temp
F
wind
direction
speed
MPH
gust
MPH
rain 1hr
in
rain 24hr
in
rain mn
in
humidity
%
barometer
mb
20260502221516 52 135 0.0 0.0 0.00 0.32 0.00 90 1013.5
20260502221019 52 135 0.0 0.0 0.00 0.32 0.00 89 1013.4
20260502220516 52 135 0.0 0.0 0.00 0.32 0.00 89 1013.3
20260502220017 52 135 0.0 0.0 0.00 0.32 0.00 89 1013.4
20260502215516 53 101 0.0 0.0 0.00 0.32 0.32 89 1013.4
20260502215017 53 90 0.0 0.0 0.00 0.32 0.32 89 1013.5
20260502214516 53 100 0.0 0.0 0.00 0.32 0.32 89 1013.5
20260502214016 53 158 0.0 0.0 0.00 0.32 0.32 89 1013.5
20260502213517 53 112 0.0 0.0 0.00 0.32 0.32 89 1013.4
20260502213017 53 78 0.0 0.0 0.00 0.32 0.32 89 1013.5
20260502212516 53 112 0.0 0.0 0.00 0.32 0.32 89 1013.5
20260502212017 53 112 0.0 0.0 0.00 0.32 0.32 89 1013.4
20260502211518 54 112 0.0 0.0 0.00 0.32 0.32 89 1013.4
20260502211017 54 112 0.0 0.0 0.00 0.32 0.32 89 1013.3
20260502210516 54 112 0.0 0.0 0.00 0.32 0.32 89 1013.4
20260502210016 54 116 0.0 0.0 0.00 0.32 0.32 89 1013.4
20260502205516 54 135 0.0 0.0 0.00 0.32 0.32 89 1013.4
20260502205017 54 135 0.0 0.0 0.00 0.32 0.32 89 1013.3
20260502204516 54 135 0.0 0.0 0.00 0.32 0.32 89 1013.3
20260502204017 54 135 0.0 0.0 0.00 0.32 0.32 89 1013.2
20260502203516 54 119 0.0 0.0 0.00 0.32 0.32 89 1013.1
20260502203018 54 135 0.0 0.0 0.00 0.32 0.32 89 1013.1
20260502202516 54 135 0.0 0.0 0.00 0.32 0.32 89 1013.2
20260502202016 54 135 0.0 0.0 0.00 0.32 0.32 89 1013.2
20260502201516 54 135 0.0 0.0 0.00 0.32 0.32 88 1013.2
20260502201016 54 112 0.0 0.0 0.00 0.32 0.32 88 1013.1
20260502200516 54 112 0.0 0.0 0.00 0.32 0.32 88 1013.1
20260502200016 54 110 0.0 0.0 0.00 0.32 0.32 88 1013.2
20260502195516 54 100 0.0 0.0 0.00 0.32 0.32 88 1013.3
20260502195016 54 112 0.0 0.0 0.00 0.32 0.32 88 1013.3
20260502194517 54 112 0.0 0.0 0.00 0.32 0.32 87 1013.2
20260502194016 54 112 0.0 0.0 0.00 0.32 0.32 87 1013.1
20260502193516 54 112 0.0 0.0 0.00 0.32 0.32 87 1013.1
20260502193016 54 112 0.0 0.0 0.00 0.32 0.32 87 1013.2
20260502192516 54 112 0.0 0.0 0.00 0.32 0.32 87 1013.1
20260502192017 55 112 0.0 0.0 0.00 0.32 0.32 87 1012.9
20260502191517 55 112 0.0 0.0 0.00 0.32 0.32 87 1012.9
20260502191017 55 90 0.0 0.0 0.00 0.32 0.32 87 1012.8
20260502190516 55 90 0.0 0.0 0.00 0.32 0.32 87 1012.7
20260502190016 55 135 0.0 0.0 0.00 0.32 0.32 87 1012.8
20260502185516 55 135 0.0 0.0 0.00 0.32 0.32 86 1012.8
20260502185016 55 112 0.0 1.0 0.00 0.32 0.32 86 1012.8
20260502184517 56 90 0.0 0.0 0.02 0.32 0.32 86 1012.9
20260502184016 55 90 0.0 0.0 0.02 0.32 0.32 86 1013.1
20260502183516 56 90 0.0 0.0 0.04 0.32 0.32 86 1013.3
20260502183016 56 90 0.0 0.0 0.06 0.32 0.32 85 1013.1
20260502182516 56 90 0.0 0.0 0.08 0.32 0.32 85 1013.0
20260502182019 56 45 0.0 0.0 0.08 0.32 0.32 85 1013.2
20260502181516 56 45 0.0 0.0 0.10 0.32 0.32 85 1013.3
20260502181017 56 45 0.0 0.0 0.10 0.32 0.32 84 1013.4
20260502180517 56 45 0.0 0.0 0.10 0.32 0.32 84 1013.3
20260502170518 61 96 0.0 3.0 0.00 0.22 0.22 76 1013.0
20260502164016 62 103 1.0 6.0 0.00 0.22 0.22 77 1012.9
20260502163516 62 120 1.0 6.0 0.00 0.22 0.22 77 1012.9
20260502163016 62 135 0.0 0.0 0.00 0.22 0.22 77 1012.9
20260502162516 62 135 0.0 3.0 0.00 0.22 0.22 78 1013.0
20260502162016 62 135 0.0 6.0 0.00 0.22 0.22 78 1013.0
20260502161516 62 112 2.0 5.0 0.00 0.22 0.22 78 1013.0
20260502161016 62 100 2.0 6.0 0.00 0.22 0.22 78 1013.0
20260502160516 62 129 1.0 3.0 0.00 0.22 0.22 78 1013.0
20260502152015 62 151 0.0 1.0 0.06 0.22 0.22 80 1013.6
20260502151516 62 161 0.0 0.0 0.08 0.22 0.22 81 1013.7
20260502151016 61 0 0.0 0.0 0.08 0.22 0.22 82 1013.7
20260502150516 60 10 0.0 0.0 0.10 0.22 0.22 83 1013.7
20260502130515 67 126 2.0 6.0 0.00 0.00 0.00 67 1014.7
20260502123516 70 150 4.0 6.0 0.00 0.00 0.00 67 1014.6
20260502123016 70 150 5.0 7.0 0.00 0.00 0.00 69 1014.6
20260502122514 69 135 3.0 7.0 0.00 0.00 0.00 70 1014.5
20260502122017 68 130 3.0 7.0 0.00 0.00 0.00 70 1014.6
20260502121516 68 80 3.0 8.0 0.00 0.00 0.00 71 1014.6
20260502121016 67 118 4.0 8.0 0.00 0.00 0.00 72 1014.7
20260502120516 67 85 3.0 7.0 0.00 0.00 0.00 73 1014.8
20260502115517 66 96 5.0 9.0 0.00 0.00 0.00 73 1014.8
20260502115015 66 89 3.0 9.0 0.00 0.00 0.00 74 1014.9
20260502114517 65 112 2.0 6.0 0.00 0.00 0.00 76 1014.9
20260502114016 64 115 5.0 12.0 0.00 0.00 0.00 76 1014.8
20260502113515 64 123 2.0 7.0 0.00 0.00 0.00 77 1015.0
20260502113015 63 112 5.0 12.0 0.00 0.00 0.00 77 1015.3
20260502112515 63 93 4.0 9.0 0.00 0.00 0.00 78 1015.4
20260502112016 63 100 2.0 7.0 0.00 0.00 0.00 78 1015.5
20260502111516 63 153 5.0 8.0 0.00 0.00 0.00 77 1015.6
20260502111015 63 153 3.0 8.0 0.00 0.00 0.00 78 1015.6
20260502110515 63 88 2.0 6.0 0.00 0.00 0.00 78 1015.6
20260502110015 63 151 2.0 9.0 0.00 0.00 0.00 78 1015.7
20260502105515 63 99 2.0 9.0 0.00 0.00 0.00 78 1015.8
20260502105015 62 112 3.0 10.0 0.00 0.00 0.00 79 1016.0
20260502104515 62 178 1.0 10.0 0.00 0.00 0.00 79 1015.9
20260502104016 62 143 2.0 6.0 0.00 0.00 0.00 78 1015.8
20260502103515 62 115 2.0 6.0 0.00 0.00 0.00 77 1015.9
20260502103015 62 109 3.0 6.0 0.00 0.00 0.00 76 1015.9
20260502102515 62 126 5.0 8.0 0.00 0.00 0.00 75 1016.3
20260502102015 63 155 2.0 7.0 0.00 0.00 0.00 75 1016.7
20260502101515 63 129 1.0 7.0 0.00 0.00 0.00 74 1016.5
20260502101015 63 101 3.0 10.0 0.00 0.00 0.00 73 1016.4
20260502100515 64 100 3.0 9.0 0.00 0.00 0.00 73 1016.2
20260502091515 63 70 3.0 8.0 0.00 0.00 0.00 74 1016.3
20260502091016 63 123 4.0 10.0 0.00 0.00 0.00 73 1016.3
20260502090516 64 108 5.0 8.0 0.00 0.00 0.00 73 1016.3
20260502071516 60 52 3.0 7.0 0.00 0.00 0.00 84 1016.3
20260502071016 59 92 4.0 8.0 0.00 0.00 0.00 84 1016.4
20260502070515 58 91 2.0 7.0 0.00 0.00 0.00 84 1016.4
20260502070015 57 64 2.0 9.0 0.00 0.00 0.00 85 1016.5
20260502065514 57 97 6.0 9.0 0.00 0.00 0.00 85 1016.4
20260502065015 57 79 3.0 6.0 0.00 0.00 0.00 85 1016.3
20260502064515 56 70 5.0 10.0 0.00 0.00 0.00 85 1016.3
20260502064015 56 80 3.0 7.0 0.00 0.00 0.00 86 1016.3
20260502063515 56 73 3.0 8.0 0.00 0.00 0.00 86 1016.5
20260502063016 56 86 1.0 8.0 0.00 0.00 0.00 86 1016.3
20260502062515 56 88 5.0 8.0 0.00 0.00 0.00 87 1016.4
20260502062018 55 84 2.0 6.0 0.00 0.00 0.00 87 1016.3
20260502061518 55 95 2.0 7.0 0.00 0.00 0.00 87 1016.3
20260502061015 55 140 1.0 6.0 0.00 0.00 0.00 87 1016.5
20260502060515 55 73 2.0 8.0 0.00 0.00 0.00 87 1016.5
20260502060015 55 135 2.0 6.0 0.00 0.00 0.00 87 1016.4
20260502055518 55 85 2.0 7.0 0.00 0.00 0.00 87 1016.3
20260502055015 55 131 1.0 7.0 0.00 0.00 0.00 87 1016.1
20260502054515 55 132 2.0 7.0 0.00 0.00 0.00 87 1016.3
20260502054015 55 91 2.0 7.0 0.00 0.00 0.00 87 1016.3
20260502053515 55 78 4.0 7.0 0.00 0.00 0.00 87 1016.3
20260502053015 55 114 2.0 6.0 0.00 0.00 0.00 87 1016.2
20260502052515 55 78 6.0 13.0 0.00 0.00 0.00 87 1016.1
20260502052015 55 76 5.0 8.0 0.00 0.00 0.00 87 1016.5
20260502051515 55 84 4.0 8.0 0.00 0.00 0.00 87 1016.3
20260502051016 55 68 3.0 7.0 0.00 0.00 0.00 87 1016.1
20260502050518 55 77 3.0 7.0 0.00 0.00 0.00 87 1016.1
20260502050016 55 85 4.0 8.0 0.00 0.00 0.00 87 1016.2
20260502045515 54 171 3.0 8.0 0.00 0.00 0.00 87 1016.4
20260502045015 54 52 1.0 7.0 0.00 0.00 0.00 87 1016.4
20260502044516 54 120 1.0 5.0 0.00 0.00 0.00 86 1016.4
20260502044015 54 97 3.0 7.0 0.00 0.00 0.00 86 1016.4
20260502043515 54 92 3.0 10.0 0.00 0.00 0.00 86 1016.4
20260502043019 54 90 3.0 7.0 0.00 0.00 0.00 86 1016.3
20260502042515 54 73 3.0 9.0 0.00 0.00 0.00 86 1016.1
20260502042015 54 38 3.0 8.0 0.00 0.00 0.00 86 1016.4
20260502041514 54 64 3.0 7.0 0.00 0.00 0.00 86 1016.5
20260502041015 54 88 3.0 10.0 0.00 0.00 0.00 86 1016.4
20260502040515 54 93 2.0 9.0 0.00 0.00 0.00 86 1016.6
20260502040014 54 99 4.0 8.0 0.00 0.00 0.00 85 1016.7
20260502035514 54 27 3.0 9.0 0.00 0.00 0.00 85 1016.7
20260502035015 54 68 0.0 3.0 0.00 0.00 0.00 85 1016.6
20260502034515 54 90 1.0 5.0 0.00 0.00 0.00 84 1016.6
20260502034015 54 133 1.0 3.0 0.00 0.00 0.00 84 1016.5
20260502033515 55 18 1.0 6.0 0.00 0.00 0.00 84 1016.4
20260502033016 55 107 1.0 7.0 0.00 0.00 0.00 84 1016.5
20260502032515 55 38 3.0 12.0 0.00 0.00 0.00 84 1016.6
20260502032016 55 71 2.0 7.0 0.00 0.00 0.00 84 1016.6
20260502031515 55 183 3.0 7.0 0.00 0.00 0.00 84 1016.4
20260502031015 55 104 2.0 5.0 0.00 0.00 0.00 84 1016.4
20260502030515 55 90 0.0 6.0 0.00 0.00 0.00 84 1016.7
20260502030015 55 76 1.0 7.0 0.00 0.00 0.00 83 1016.6
20260502025514 55 86 1.0 5.0 0.00 0.00 0.00 83 1016.6
20260502025015 55 79 3.0 6.0 0.00 0.00 0.00 83 1016.6
20260502024515 56 78 2.0 5.0 0.00 0.00 0.00 83 1016.6
20260502024015 56 61 3.0 8.0 0.00 0.00 0.00 83 1016.6
20260502023515 56 28 2.0 8.0 0.00 0.00 0.00 83 1016.7
20260502023015 56 77 2.0 7.0 0.00 0.00 0.00 82 1016.6
20260502022515 56 92 5.0 8.0 0.00 0.00 0.00 82 1016.6
20260502022017 56 110 3.0 9.0 0.00 0.00 0.00 82 1016.6
20260502021514 56 81 9.0 15.0 0.00 0.00 0.00 82 1016.6
20260502021014 56 95 3.0 9.0 0.00 0.00 0.00 82 1016.7
20260502020515 56 93 5.0 12.0 0.00 0.00 0.00 82 1016.7
20260502020014 56 99 2.0 6.0 0.00 0.00 0.00 82 1016.8
20260502015515 56 99 2.0 12.0 0.00 0.00 0.00 81 1016.9
20260502015015 56 82 5.0 12.0 0.00 0.00 0.00 81 1017.0
20260502014516 56 71 5.0 10.0 0.00 0.00 0.00 81 1016.9
20260502014014 56 76 3.0 7.0 0.00 0.00 0.00 81 1016.9
20260502013515 56 72 1.0 12.0 0.00 0.00 0.00 81 1017.0
20260502013015 56 74 3.0 9.0 0.00 0.00 0.00 81 1017.1
20260502012515 56 100 3.0 9.0 0.00 0.00 0.00 81 1016.9
20260502012014 56 94 3.0 9.0 0.00 0.00 0.00 81 1017.0
20260502011515 56 131 1.0 8.0 0.00 0.00 0.00 81 1017.1
20260502011015 56 125 2.0 10.0 0.00 0.00 0.00 81 1017.0
20260502010517 56 119 1.0 5.0 0.00 0.00 0.00 81 1017.1
20260502010015 56 111 1.0 6.0 0.00 0.00 0.00 81 1017.2
20260502005515 56 112 3.0 8.0 0.00 0.00 0.00 81 1017.1
20260502005014 56 111 4.0 7.0 0.00 0.00 0.00 81 1017.0
20260502004514 57 85 3.0 10.0 0.00 0.00 0.00 80 1017.0
20260502004015 57 138 5.0 12.0 0.00 0.00 0.00 80 1017.1
20260502003514 57 112 3.0 6.0 0.00 0.00 0.00 80 1017.0
20260502003015 57 106 2.0 6.0 0.00 0.00 0.00 80 1017.0
20260502002514 57 98 6.0 10.0 0.00 0.00 0.00 81 1017.2
20260502002015 57 90 2.0 6.0 0.00 0.00 0.00 81 1017.1
20260502001515 57 109 2.0 7.0 0.00 0.00 0.00 81 1017.2
20260502001015 57 85 3.0 10.0 0.00 0.00 0.00 81 1017.3
20260502000515 57 115 2.0 5.0 0.00 0.00 0.00 81 1017.5
20260502000014 57 76 2.0 9.0 0.00 0.00 0.00 81 1017.5
20260501235515 57 112 3.0 13.0 0.00 0.00 0.00 82 1017.6
20260501235014 57 115 1.0 7.0 0.00 0.00 0.00 82 1017.6
20260501234514 58 90 2.0 9.0 0.00 0.00 0.00 82 1017.6
20260501234015 58 113 2.0 7.0 0.00 0.00 0.00 82 1017.6
20260501233516 58 60 0.0 6.0 0.00 0.00 0.00 82 1017.5
20260501233015 58 87 1.0 6.0 0.00 0.00 0.00 82 1017.5
20260501232515 58 116 0.0 6.0 0.00 0.00 0.00 82 1017.6
20260501232014 58 78 1.0 5.0 0.00 0.00 0.00 82 1017.5
20260501231514 58 115 1.0 3.0 0.00 0.00 0.00 82 1017.5
20260501231014 58 141 1.0 6.0 0.00 0.00 0.00 82 1017.4
20260501230514 58 123 0.0 3.0 0.00 0.00 0.00 81 1017.6
20260501230015 58 109 0.0 8.0 0.00 0.00 0.00 81 1017.6
20260501225514 58 119 1.0 8.0 0.00 0.00 0.00 81 1017.5
20260501225015 58 113 0.0 3.0 0.00 0.00 0.00 81 1017.4
20260501224514 58 93 0.0 3.0 0.00 0.00 0.00 81 1017.5
20260501224014 58 81 2.0 5.0 0.00 0.00 0.00 81 1017.4
20260501223514 58 74 0.0 5.0 0.00 0.00 0.00 81 1017.4
20260501223015 58 96 0.0 2.0 0.00 0.00 0.00 81 1017.5
20260501222515 58 56 0.0 1.0 0.00 0.00 0.00 81 1017.3
20260501222015 58 145 0.0 5.0 0.00 0.00 0.00 81 1017.4